Time,TemperatureF,DewpointF,PressureIn,WindDirection,WindDirectionDegrees,WindSpeedMPH,WindSpeedGustMPH,Humidity,HourlyPrecipIn,Conditions,Clouds,dailyrainin,SoftwareType,DateUTC
2013-10-06 00:04:00,40.0,36.4,29.95,NW,307,16.0,31.0,87,0.00,,,0.00,Wunderground v.1.15,2013-10-06 05:04:00,
2013-10-06 00:10:00,40.0,36.4,29.95,WNW,293,15.0,31.0,87,0.00,,,0.00,Wunderground v.1.15,2013-10-06 05:10:00,
2013-10-06 00:15:00,40.0,36.4,29.95,WNW,300,16.0,31.0,87,0.00,,,0.00,Wunderground v.1.15,2013-10-06 05:15:00,
2013-10-06 00:20:00,40.1,36.5,29.95,West,261,17.0,17.0,87,0.00,,,0.00,Wunderground v.1.15,2013-10-06 05:20:00,
2013-10-06 00:30:00,40.4,36.2,29.95,WNW,283,16.0,31.0,85,0.00,,,0.00,Wunderground v.1.15,2013-10-06 05:30:00,
2013-10-06 00:35:00,40.6,36.4,29.95,WNW,293,16.0,31.0,85,0.00,,,0.00,Wunderground v.1.15,2013-10-06 05:35:00,
2013-10-06 00:40:00,40.8,36.3,29.95,WNW,285,16.0,31.0,84,0.00,,,0.00,Wunderground v.1.15,2013-10-06 05:40:00,
2013-10-06 00:45:00,40.9,36.4,29.96,WNW,287,16.0,31.0,84,0.00,,,0.00,Wunderground v.1.15,2013-10-06 05:45:00,
2013-10-06 00:55:00,40.9,36.1,29.96,WNW,287,14.0,31.0,83,0.00,,,0.00,Wunderground v.1.15,2013-10-06 05:55:00,
2013-10-06 01:00:00,40.9,36.1,29.96,WNW,288,12.0,31.0,83,0.00,,,0.00,Wunderground v.1.15,2013-10-06 06:00:00,
2013-10-06 01:05:00,41.0,36.2,29.96,WNW,286,14.0,31.0,83,0.00,,,0.00,Wunderground v.1.15,2013-10-06 06:05:00,
2013-10-06 01:10:00,41.1,36.0,29.96,West,277,16.0,16.0,82,0.00,,,0.00,Wunderground v.1.15,2013-10-06 06:10:00,
2013-10-06 01:15:00,41.1,36.0,29.96,West,277,15.0,31.0,82,0.00,,,0.00,Wunderground v.1.15,2013-10-06 06:15:00,
2013-10-06 01:20:00,41.1,36.3,29.96,WNW,293,14.0,14.0,83,0.00,,,0.00,Wunderground v.1.15,2013-10-06 06:20:00,
2013-10-06 01:25:00,41.1,36.0,29.96,WSW,243,14.0,31.0,82,0.00,,,0.00,Wunderground v.1.15,2013-10-06 06:25:00,
2013-10-06 01:35:00,41.2,36.1,29.96,WNW,297,14.0,31.0,82,0.00,,,0.00,Wunderground v.1.15,2013-10-06 06:35:00,
2013-10-06 01:40:00,41.3,36.2,29.96,NW,319,14.0,31.0,82,0.00,,,0.00,Wunderground v.1.15,2013-10-06 06:40:00,
2013-10-06 01:45:00,41.4,36.3,29.96,West,279,14.0,31.0,82,0.00,,,0.00,Wunderground v.1.15,2013-10-06 06:45:00,
2013-10-06 01:55:00,41.5,36.4,29.96,NW,311,16.0,16.0,82,0.00,,,0.00,Wunderground v.1.15,2013-10-06 06:55:00,
2013-10-06 02:00:00,41.6,36.5,29.96,WNW,294,16.0,31.0,82,0.00,,,0.00,Wunderground v.1.15,2013-10-06 07:00:00,
2013-10-06 02:05:00,41.7,36.6,29.96,West,275,15.0,31.0,82,0.00,,,0.00,Wunderground v.1.15,2013-10-06 07:05:00,
2013-10-06 02:10:00,41.7,36.6,29.96,WNW,295,14.0,31.0,82,0.00,,,0.00,Wunderground v.1.15,2013-10-06 07:10:00,
2013-10-06 02:20:00,41.7,36.6,29.97,West,273,16.0,16.0,82,0.00,,,0.00,Wunderground v.1.15,2013-10-06 07:20:00,
2013-10-06 02:25:00,41.7,36.6,29.96,NW,317,17.0,17.0,82,0.00,,,0.00,Wunderground v.1.15,2013-10-06 07:25:00,
2013-10-06 02:30:00,41.7,36.6,29.97,WNW,290,17.0,31.0,82,0.00,,,0.00,Wunderground v.1.15,2013-10-06 07:30:00,
2013-10-06 02:35:00,41.6,36.5,29.97,WNW,302,16.0,31.0,82,0.00,,,0.00,Wunderground v.1.15,2013-10-06 07:35:00,
2013-10-06 02:40:00,41.6,36.5,29.96,NW,304,16.0,16.0,82,0.00,,,0.00,Wunderground v.1.15,2013-10-06 07:40:00,
2013-10-06 02:50:00,41.5,36.7,29.97,WNW,288,13.0,13.0,83,0.00,,,0.00,Wunderground v.1.15,2013-10-06 07:50:00,
2013-10-06 02:55:00,41.6,36.8,29.96,WNW,292,14.0,14.0,83,0.00,,,0.00,Wunderground v.1.15,2013-10-06 07:55:00,
2013-10-06 03:00:00,41.7,36.9,29.96,NW,311,14.0,14.0,83,0.00,,,0.00,Wunderground v.1.15,2013-10-06 08:00:00,
2013-10-06 03:05:00,41.8,37.0,29.96,WNW,302,14.0,31.0,83,0.00,,,0.00,Wunderground v.1.15,2013-10-06 08:05:00,
2013-10-06 03:15:00,41.9,37.1,29.96,NW,315,13.0,16.0,83,0.00,,,0.00,Wunderground v.1.15,2013-10-06 08:15:00,
2013-10-06 03:20:00,42.0,37.2,29.96,WNW,298,13.0,13.0,83,0.00,,,0.00,Wunderground v.1.15,2013-10-06 08:20:00,
2013-10-06 03:25:00,42.1,37.3,29.96,NW,305,14.0,14.0,83,0.00,,,0.00,Wunderground v.1.15,2013-10-06 08:25:00,
2013-10-06 03:35:00,42.2,37.4,29.96,NW,308,13.0,31.0,83,0.00,,,0.00,Wunderground v.1.15,2013-10-06 08:35:00,
2013-10-06 03:40:00,42.3,37.5,29.96,WNW,300,13.0,31.0,83,0.00,,,0.00,Wunderground v.1.15,2013-10-06 08:40:00,
2013-10-06 03:45:00,42.4,37.6,29.96,NW,318,13.0,31.0,83,0.00,,,0.00,Wunderground v.1.15,2013-10-06 08:45:00,
2013-10-06 03:50:00,42.4,37.6,29.96,WNW,298,14.0,31.0,83,0.00,,,0.00,Wunderground v.1.15,2013-10-06 08:50:00,
2013-10-06 03:55:00,42.5,37.7,29.97,NW,304,16.0,31.0,83,0.00,,,0.00,Wunderground v.1.15,2013-10-06 08:55:00,
2013-10-06 04:05:00,42.4,37.6,29.97,WNW,283,16.0,31.0,83,0.00,,,0.00,Wunderground v.1.15,2013-10-06 09:05:00,
2013-10-06 04:10:00,42.2,37.4,29.97,WNW,290,16.0,16.0,83,0.00,,,0.00,Wunderground v.1.15,2013-10-06 09:10:00,
2013-10-06 04:15:00,42.0,37.5,29.98,WNW,291,16.0,31.0,84,0.00,,,0.00,Wunderground v.1.15,2013-10-06 09:15:00,
2013-10-06 04:20:00,41.9,37.7,29.98,West,277,15.0,15.0,85,0.00,,,0.00,Wunderground v.1.15,2013-10-06 09:20:00,
2013-10-06 04:30:00,41.6,37.7,29.98,WNW,292,13.0,13.0,86,0.00,,,0.00,Wunderground v.1.15,2013-10-06 09:30:00,
2013-10-06 04:35:00,41.5,37.9,29.98,WNW,292,13.0,31.0,87,0.00,,,0.00,Wunderground v.1.15,2013-10-06 09:35:00,
2013-10-06 04:40:00,41.4,37.8,29.98,WNW,284,13.0,13.0,87,0.00,,,0.00,Wunderground v.1.15,2013-10-06 09:40:00,
2013-10-06 04:50:00,41.4,37.5,29.98,WNW,294,13.0,13.0,86,0.00,,,0.00,Wunderground v.1.15,2013-10-06 09:50:00,
2013-10-06 04:55:00,41.5,37.6,29.98,WNW,284,12.0,31.0,86,0.00,,,0.00,Wunderground v.1.15,2013-10-06 09:55:00,
2013-10-06 05:00:00,41.5,37.6,29.98,WNW,294,11.0,31.0,86,0.00,,,0.00,Wunderground v.1.15,2013-10-06 10:00:00,
2013-10-06 05:05:00,41.5,37.6,29.98,WNW,290,11.0,31.0,86,0.00,,,0.00,Wunderground v.1.15,2013-10-06 10:05:00,
2013-10-06 05:10:00,41.6,37.7,29.98,WNW,286,11.0,31.0,86,0.00,,,0.00,Wunderground v.1.15,2013-10-06 10:10:00,
2013-10-06 05:20:00,41.7,37.8,29.99,WNW,294,11.0,31.0,86,0.00,,,0.00,Wunderground v.1.15,2013-10-06 10:20:00,
2013-10-06 05:25:00,41.8,37.9,29.98,WNW,295,10.0,31.0,86,0.00,,,0.00,Wunderground v.1.15,2013-10-06 10:25:00,
2013-10-06 05:30:00,41.9,37.7,29.98,WNW,301,12.0,31.0,85,0.00,,,0.00,Wunderground v.1.15,2013-10-06 10:30:00,
2013-10-06 05:40:00,42.0,37.8,29.99,WNW,299,14.0,14.0,85,0.00,,,0.00,Wunderground v.1.15,2013-10-06 10:40:00,
2013-10-06 05:45:00,42.1,37.9,29.99,WNW,289,13.0,18.0,85,0.00,,,0.00,Wunderground v.1.15,2013-10-06 10:45:00,
2013-10-06 05:50:00,42.2,37.7,29.99,WNW,291,14.0,31.0,84,0.00,,,0.00,Wunderground v.1.15,2013-10-06 10:50:00,
2013-10-06 05:55:00,42.2,37.7,29.99,WNW,294,13.0,31.0,84,0.00,,,0.00,Wunderground v.1.15,2013-10-06 10:55:00,
2013-10-06 06:05:00,42.3,37.8,29.99,West,276,13.0,31.0,84,0.00,,,0.00,Wunderground v.1.15,2013-10-06 11:05:00,
2013-10-06 06:10:00,42.3,37.8,29.99,WNW,293,12.0,12.0,84,0.00,,,0.00,Wunderground v.1.15,2013-10-06 11:10:00,
2013-10-06 06:15:00,42.3,37.8,29.99,WNW,289,12.0,31.0,84,0.00,,,0.00,Wunderground v.1.15,2013-10-06 11:15:00,
2013-10-06 06:20:00,42.3,37.8,29.99,NW,322,12.0,12.0,84,0.00,,,0.00,Wunderground v.1.15,2013-10-06 11:20:00,
2013-10-06 06:25:00,42.3,37.8,29.99,West,275,12.0,31.0,84,0.00,,,0.00,Wunderground v.1.15,2013-10-06 11:25:00,
2013-10-06 06:35:00,42.4,37.9,29.99,WNW,294,13.0,31.0,84,0.00,,,0.00,Wunderground v.1.15,2013-10-06 11:35:00,
2013-10-06 06:40:00,42.4,37.9,29.99,NW,304,14.0,14.0,84,0.00,,,0.00,Wunderground v.1.15,2013-10-06 11:40:00,
2013-10-06 06:45:00,42.4,37.9,29.99,West,281,13.0,31.0,84,0.00,,,0.00,Wunderground v.1.15,2013-10-06 11:45:00,
2013-10-06 06:50:00,42.5,38.0,29.99,West,279,12.0,12.0,84,0.00,,,0.00,Wunderground v.1.15,2013-10-06 11:50:00,
2013-10-06 07:00:00,42.6,38.1,30.00,WSW,257,13.0,13.0,84,0.00,,,0.00,Wunderground v.1.15,2013-10-06 12:00:00,
2013-10-06 07:05:00,42.7,38.2,30.00,WNW,294,12.0,31.0,84,0.00,,,0.00,Wunderground v.1.15,2013-10-06 12:05:00,
2013-10-06 07:10:00,42.7,38.2,30.00,NNW,331,13.0,13.0,84,0.00,,,0.00,Wunderground v.1.15,2013-10-06 12:10:00,
2013-10-06 07:15:00,42.9,38.4,30.00,WNW,296,15.0,18.0,84,0.00,,,0.00,Wunderground v.1.15,2013-10-06 12:15:00,
2013-10-06 07:20:00,42.9,38.4,30.00,WNW,290,14.0,14.0,84,0.00,,,0.00,Wunderground v.1.15,2013-10-06 12:20:00,
2013-10-06 07:30:00,43.1,38.6,30.00,WNW,294,12.0,31.0,84,0.00,,,0.00,Wunderground v.1.15,2013-10-06 12:30:00,
2013-10-06 07:35:00,43.1,38.6,30.01,WNW,298,13.0,31.0,84,0.00,,,0.00,Wunderground v.1.15,2013-10-06 12:35:00,
2013-10-06 07:40:00,43.3,38.8,30.01,WNW,302,13.0,13.0,84,0.00,,,0.00,Wunderground v.1.15,2013-10-06 12:40:00,
2013-10-06 07:50:00,43.5,39.0,30.01,NW,311,13.0,31.0,84,0.00,,,0.00,Wunderground v.1.15,2013-10-06 12:50:00,
2013-10-06 07:55:00,43.6,39.1,30.01,NW,324,12.0,31.0,84,0.00,,,0.00,Wunderground v.1.15,2013-10-06 12:55:00,
2013-10-06 08:00:00,43.7,39.2,30.01,WNW,290,12.0,12.0,84,0.00,,,0.00,Wunderground v.1.15,2013-10-06 13:00:00,
2013-10-06 08:10:00,43.8,39.3,30.02,NW,311,12.0,12.0,84,0.00,,,0.00,Wunderground v.1.15,2013-10-06 13:10:00,
2013-10-06 08:15:00,43.9,39.4,30.01,WNW,294,11.0,13.0,84,0.00,,,0.00,Wunderground v.1.15,2013-10-06 13:15:00,
2013-10-06 08:20:00,44.0,39.5,30.01,WNW,284,11.0,31.0,84,0.00,,,0.00,Wunderground v.1.15,2013-10-06 13:20:00,
2013-10-06 08:30:00,44.0,39.5,30.02,WNW,287,13.0,31.0,84,0.00,,,0.00,Wunderground v.1.15,2013-10-06 13:30:00,
2013-10-06 08:35:00,44.0,39.5,30.02,WNW,300,13.0,31.0,84,0.00,,,0.00,Wunderground v.1.15,2013-10-06 13:35:00,
2013-10-06 08:40:00,44.0,39.8,30.02,WNW,283,12.0,12.0,85,0.00,,,0.00,Wunderground v.1.15,2013-10-06 13:40:00,
2013-10-06 08:50:00,43.9,39.7,30.02,WNW,287,11.0,11.0,85,0.00,,,0.00,Wunderground v.1.15,2013-10-06 13:50:00,
2013-10-06 08:55:00,44.0,39.8,30.02,WNW,290,10.0,31.0,85,0.00,,,0.00,Wunderground v.1.15,2013-10-06 13:55:00,
2013-10-06 09:00:00,44.0,39.8,30.02,WNW,288,12.0,31.0,85,0.00,,,0.00,Wunderground v.1.15,2013-10-06 14:00:00,
2013-10-06 09:10:00,44.2,40.0,30.02,NW,304,13.0,13.0,85,0.00,,,0.00,Wunderground v.1.15,2013-10-06 14:10:00,
2013-10-06 09:15:00,44.1,39.9,30.02,WNW,296,12.0,31.0,85,0.00,,,0.00,Wunderground v.1.15,2013-10-06 14:15:00,
2013-10-06 09:20:00,44.0,40.1,30.02,WNW,296,11.0,31.0,86,0.00,,,0.00,Wunderground v.1.15,2013-10-06 14:20:00,
2013-10-06 09:25:00,43.8,40.2,30.02,NW,309,12.0,31.0,87,0.00,,,0.00,Wunderground v.1.15,2013-10-06 14:25:00,
2013-10-06 09:30:00,43.7,40.1,30.02,WNW,288,13.0,13.0,87,0.00,,,0.00,Wunderground v.1.15,2013-10-06 14:30:00,
2013-10-06 09:40:00,43.6,40.3,30.02,WNW,296,12.0,31.0,88,0.00,,,0.00,Wunderground v.1.15,2013-10-06 14:40:00,
2013-10-06 09:45:00,43.4,40.1,30.02,NW,304,11.0,31.0,88,0.00,,,0.00,Wunderground v.1.15,2013-10-06 14:45:00,
2013-10-06 09:50:00,43.4,40.1,30.03,NW,309,11.0,11.0,88,0.00,,,0.00,Wunderground v.1.15,2013-10-06 14:50:00,
2013-10-06 09:55:00,43.4,39.8,30.03,NW,316,12.0,12.0,87,0.00,,,0.00,Wunderground v.1.15,2013-10-06 14:55:00,
2013-10-06 10:05:00,43.6,40.0,30.03,WNW,298,12.0,17.0,87,0.00,,,0.00,Wunderground v.1.15,2013-10-06 15:05:00,
2013-10-06 10:10:00,43.7,39.8,30.04,NW,319,12.0,31.0,86,0.00,,,0.00,Wunderground v.1.15,2013-10-06 15:10:00,
2013-10-06 10:15:00,43.8,39.6,30.03,WNW,284,13.0,31.0,85,0.00,,,0.00,Wunderground v.1.15,2013-10-06 15:15:00,
2013-10-06 10:20:00,44.0,39.5,30.04,WNW,294,13.0,13.0,84,0.00,,,0.00,Wunderground v.1.15,2013-10-06 15:20:00,
2013-10-06 10:30:00,44.4,39.6,30.04,NW,308,15.0,31.0,83,0.00,,,0.00,Wunderground v.1.15,2013-10-06 15:30:00,
2013-10-06 10:35:00,44.6,39.1,30.04,WNW,295,16.0,31.0,81,0.00,,,0.00,Wunderground v.1.15,2013-10-06 15:35:00,
2013-10-06 10:40:00,44.9,39.4,30.04,WNW,298,16.0,16.0,81,0.00,,,0.00,Wunderground v.1.15,2013-10-06 15:40:00,
2013-10-06 10:45:00,45.1,39.6,30.04,WNW,293,15.0,31.0,81,0.00,,,0.00,Wunderground v.1.15,2013-10-06 15:45:00,
2013-10-06 10:55:00,45.4,39.3,30.04,WNW,294,17.0,31.0,79,0.00,,,0.00,Wunderground v.1.15,2013-10-06 15:55:00,
2013-10-06 11:00:00,45.5,39.4,30.05,WNW,294,15.0,15.0,79,0.00,,,0.00,Wunderground v.1.15,2013-10-06 16:00:00,
2013-10-06 11:05:00,45.7,39.6,30.05,West,266,14.0,31.0,79,0.00,,,0.00,Wunderground v.1.15,2013-10-06 16:05:00,
2013-10-06 11:10:00,45.9,39.4,30.05,WNW,301,14.0,31.0,78,0.00,,,0.00,Wunderground v.1.15,2013-10-06 16:10:00,
2013-10-06 11:20:00,46.2,39.4,30.05,WNW,290,13.0,13.0,77,0.00,,,0.00,Wunderground v.1.15,2013-10-06 16:20:00,
2013-10-06 11:25:00,46.3,39.1,30.05,NW,315,13.0,17.0,76,0.00,,,0.00,Wunderground v.1.15,2013-10-06 16:25:00,
2013-10-06 11:30:00,46.4,39.2,30.05,WNW,286,14.0,14.0,76,0.00,,,0.00,Wunderground v.1.15,2013-10-06 16:30:00,
2013-10-06 11:35:00,46.6,39.4,30.05,NNW,328,14.0,31.0,76,0.00,,,0.00,Wunderground v.1.15,2013-10-06 16:35:00,
2013-10-06 11:45:00,46.9,39.4,30.05,West,280,16.0,31.0,75,0.00,,,0.00,Wunderground v.1.15,2013-10-06 16:45:00,
2013-10-06 11:50:00,47.0,39.5,30.05,NW,305,16.0,31.0,75,0.00,,,0.00,Wunderground v.1.15,2013-10-06 16:50:00,
2013-10-06 11:55:00,47.2,39.7,30.04,WNW,291,16.0,31.0,75,0.00,,,0.00,Wunderground v.1.15,2013-10-06 16:55:00,
2013-10-06 12:05:00,47.9,40.0,30.04,NW,311,13.0,31.0,74,0.00,,,0.00,Wunderground v.1.15,2013-10-06 17:05:00,
2013-10-06 12:10:00,48.6,40.3,30.04,NW,313,14.0,31.0,73,0.00,,,0.00,Wunderground v.1.15,2013-10-06 17:10:00,
2013-10-06 12:15:00,49.2,40.2,30.04,NW,314,14.0,31.0,71,0.00,,,0.00,Wunderground v.1.15,2013-10-06 17:15:00,
2013-10-06 12:20:00,49.6,40.9,30.04,NW,311,14.0,14.0,72,0.00,,,0.00,Wunderground v.1.15,2013-10-06 17:20:00,
2013-10-06 12:30:00,49.8,40.4,30.04,NW,309,18.0,18.0,70,0.00,,,0.00,Wunderground v.1.15,2013-10-06 17:30:00,
2013-10-06 12:35:00,49.9,40.5,30.04,NW,319,18.0,31.0,70,0.00,,,0.00,Wunderground v.1.15,2013-10-06 17:35:00,
2013-10-06 12:40:00,50.9,41.5,30.04,WNW,296,16.0,31.0,70,0.00,,,0.00,Wunderground v.1.15,2013-10-06 17:40:00,
2013-10-06 12:45:00,51.6,41.0,30.04,NW,312,16.0,31.0,67,0.00,,,0.00,Wunderground v.1.15,2013-10-06 17:45:00,
2013-10-06 12:50:00,52.0,41.0,30.04,NW,319,20.0,31.0,66,0.00,,,0.00,Wunderground v.1.15,2013-10-06 17:50:00,
2013-10-06 13:00:00,53.3,41.4,30.04,NW,306,18.0,31.0,64,0.00,,,0.00,Wunderground v.1.15,2013-10-06 18:00:00,
2013-10-06 13:05:00,53.7,41.4,30.03,WNW,297,18.0,31.0,63,0.00,,,0.00,Wunderground v.1.15,2013-10-06 18:05:00,
2013-10-06 13:10:00,53.8,41.1,30.03,WNW,293,18.0,18.0,62,0.00,,,0.00,Wunderground v.1.15,2013-10-06 18:10:00,
2013-10-06 13:20:00,54.9,41.7,30.03,WNW,297,18.0,31.0,61,0.00,,,0.00,Wunderground v.1.15,2013-10-06 18:20:00,
2013-10-06 13:25:00,55.6,41.9,30.03,NW,314,18.0,31.0,60,0.00,,,0.00,Wunderground v.1.15,2013-10-06 18:25:00,
2013-10-06 13:30:00,55.9,41.3,30.02,NW,317,18.0,18.0,58,0.00,,,0.00,Wunderground v.1.15,2013-10-06 18:30:00,
2013-10-06 13:35:00,56.3,41.7,30.02,NW,325,18.0,25.0,58,0.00,,,0.00,Wunderground v.1.15,2013-10-06 18:35:00,
2013-10-06 13:45:00,56.5,41.0,30.02,NW,321,22.0,31.0,56,0.00,,,0.00,Wunderground v.1.15,2013-10-06 18:45:00,
2013-10-06 13:50:00,57.2,40.7,30.02,NW,313,20.0,31.0,54,0.00,,,0.00,Wunderground v.1.15,2013-10-06 18:50:00,
2013-10-06 13:55:00,57.2,40.7,30.01,NW,312,19.0,31.0,54,0.00,,,0.00,Wunderground v.1.15,2013-10-06 18:55:00,
2013-10-06 14:00:00,57.8,40.8,30.02,WNW,303,19.0,19.0,53,0.00,,,0.00,Wunderground v.1.15,2013-10-06 19:00:00,
2013-10-06 14:10:00,58.1,40.1,30.01,NW,315,19.0,19.0,51,0.00,,,0.00,Wunderground v.1.15,2013-10-06 19:10:00,
2013-10-06 14:15:00,58.4,39.8,30.01,NW,306,20.0,20.0,50,0.00,,,0.00,Wunderground v.1.15,2013-10-06 19:15:00,
2013-10-06 14:20:00,58.5,39.4,30.01,NW,307,19.0,31.0,49,0.00,,,0.00,Wunderground v.1.15,2013-10-06 19:20:00,
2013-10-06 14:30:00,59.4,38.6,30.00,WNW,299,17.0,17.0,46,0.00,,,0.00,Wunderground v.1.15,2013-10-06 19:30:00,
2013-10-06 14:35:00,59.4,36.3,30.00,NW,319,17.0,29.0,42,0.00,,,0.00,Wunderground v.1.15,2013-10-06 19:35:00,
2013-10-06 14:40:00,59.3,36.2,30.00,WNW,300,18.0,31.0,42,0.00,,,0.00,Wunderground v.1.15,2013-10-06 19:40:00,
2013-10-06 14:45:00,59.6,34.6,30.01,WNW,296,19.0,31.0,39,0.00,,,0.00,Wunderground v.1.15,2013-10-06 19:45:00,
2013-10-06 14:50:00,59.7,32.7,30.01,WNW,288,19.0,19.0,36,0.00,,,0.00,Wunderground v.1.15,2013-10-06 19:50:00,
2013-10-06 15:00:00,60.2,31.0,30.01,NW,305,18.0,31.0,33,0.00,,,0.00,Wunderground v.1.15,2013-10-06 20:00:00,
2013-10-06 15:05:00,60.4,31.1,30.01,WNW,298,18.0,31.0,33,0.00,,,0.00,Wunderground v.1.15,2013-10-06 20:05:00,
2013-10-06 15:10:00,60.5,28.9,30.01,WNW,283,18.0,18.0,30,0.00,,,0.00,Wunderground v.1.15,2013-10-06 20:10:00,
2013-10-06 15:15:00,60.4,28.8,30.00,WNW,299,19.0,28.0,30,0.00,,,0.00,Wunderground v.1.15,2013-10-06 20:15:00,
2013-10-06 15:25:00,60.8,29.1,30.01,WNW,296,20.0,24.0,30,0.00,,,0.00,Wunderground v.1.15,2013-10-06 20:25:00,
2013-10-06 15:30:00,60.7,27.4,30.01,WNW,300,20.0,31.0,28,0.00,,,0.00,Wunderground v.1.15,2013-10-06 20:30:00,
2013-10-06 15:35:00,61.1,27.7,30.01,WNW,299,19.0,31.0,28,0.00,,,0.00,Wunderground v.1.15,2013-10-06 20:35:00,
2013-10-06 15:45:00,61.8,28.3,30.02,WNW,300,16.0,31.0,28,0.00,,,0.00,Wunderground v.1.15,2013-10-06 20:45:00,
2013-10-06 15:50:00,61.7,28.2,30.02,WNW,296,16.0,16.0,28,0.00,,,0.00,Wunderground v.1.15,2013-10-06 20:50:00,
2013-10-06 15:55:00,61.7,29.1,30.02,WNW,303,17.0,17.0,29,0.00,,,0.00,Wunderground v.1.15,2013-10-06 20:55:00,
2013-10-06 16:00:00,61.7,28.2,30.02,NW,308,16.0,31.0,28,0.00,,,0.00,Wunderground v.1.15,2013-10-06 21:00:00,
2013-10-06 16:05:00,61.7,29.1,30.02,NW,318,17.0,31.0,29,0.00,,,0.00,Wunderground v.1.15,2013-10-06 21:05:00,
2013-10-06 16:15:00,62.2,26.9,30.02,WNW,292,17.0,31.0,26,0.00,,,0.00,Wunderground v.1.15,2013-10-06 21:15:00,
2013-10-06 16:20:00,62.3,26.9,30.02,WNW,284,16.0,16.0,26,0.00,,,0.00,Wunderground v.1.15,2013-10-06 21:20:00,
2013-10-06 16:25:00,62.1,27.7,30.02,NW,309,18.0,18.0,27,0.00,,,0.00,Wunderground v.1.15,2013-10-06 21:25:00,
2013-10-06 16:30:00,62.1,27.7,30.02,WNW,289,19.0,19.0,27,0.00,,,0.00,Wunderground v.1.15,2013-10-06 21:30:00,
2013-10-06 16:40:00,62.3,26.9,30.02,NW,325,19.0,31.0,26,0.00,,,0.00,Wunderground v.1.15,2013-10-06 21:40:00,
2013-10-06 16:45:00,62.5,26.2,30.02,NW,321,18.0,31.0,25,0.00,,,0.00,Wunderground v.1.15,2013-10-06 21:45:00,
2013-10-06 16:50:00,62.3,26.0,30.02,NW,321,18.0,31.0,25,0.00,,,0.00,Wunderground v.1.15,2013-10-06 21:50:00,
2013-10-06 17:00:00,62.7,26.3,30.03,WNW,298,16.0,16.0,25,0.00,,,0.00,Wunderground v.1.15,2013-10-06 22:00:00,
2013-10-06 17:05:00,62.8,27.4,30.03,NW,326,15.0,17.0,26,0.00,,,0.00,Wunderground v.1.15,2013-10-06 22:05:00,
2013-10-06 17:10:00,62.7,25.3,30.03,WNW,300,15.0,31.0,24,0.00,,,0.00,Wunderground v.1.15,2013-10-06 22:10:00,
2013-10-06 17:15:00,62.5,24.2,30.03,NW,326,18.0,31.0,23,0.00,,,0.00,Wunderground v.1.15,2013-10-06 22:15:00,
2013-10-06 17:20:00,62.3,25.0,30.03,NW,309,19.0,19.0,24,0.00,,,0.00,Wunderground v.1.15,2013-10-06 22:20:00,
2013-10-06 17:30:00,62.4,26.1,30.04,NW,325,14.0,14.0,25,0.00,,,0.00,Wunderground v.1.15,2013-10-06 22:30:00,
2013-10-06 17:35:00,62.4,27.0,30.04,NNW,331,14.0,16.0,26,0.00,,,0.00,Wunderground v.1.15,2013-10-06 22:35:00,
2013-10-06 17:40:00,62.3,25.0,30.04,NW,317,15.0,31.0,24,0.00,,,0.00,Wunderground v.1.15,2013-10-06 22:40:00,
2013-10-06 17:45:00,62.3,26.0,30.04,NW,323,17.0,31.0,25,0.00,,,0.00,Wunderground v.1.15,2013-10-06 22:45:00,
2013-10-06 17:55:00,62.2,26.9,30.05,NW,321,16.0,31.0,26,0.00,,,0.00,Wunderground v.1.15,2013-10-06 22:55:00,
2013-10-06 18:00:00,62.0,27.6,30.05,NW,310,15.0,31.0,27,0.00,,,0.00,Wunderground v.1.15,2013-10-06 23:00:00,
2013-10-06 18:05:00,61.9,28.4,30.05,NW,312,12.0,31.0,28,0.00,,,0.00,Wunderground v.1.15,2013-10-06 23:05:00,
2013-10-06 18:10:00,61.7,29.1,30.05,NW,312,12.0,31.0,29,0.00,,,0.00,Wunderground v.1.15,2013-10-06 23:10:00,
2013-10-06 18:15:00,61.6,29.8,30.05,NW,308,12.0,31.0,30,0.00,,,0.00,Wunderground v.1.15,2013-10-06 23:15:00,
2013-10-06 18:25:00,61.3,29.6,30.05,WNW,293,11.0,31.0,30,0.00,,,0.00,Wunderground v.1.15,2013-10-06 23:25:00,
2013-10-06 18:30:00,61.0,30.1,30.05,NW,319,10.0,31.0,31,0.00,,,0.00,Wunderground v.1.15,2013-10-06 23:30:00,
2013-10-06 18:35:00,60.7,29.9,30.05,NW,313,10.0,31.0,31,0.00,,,0.00,Wunderground v.1.15,2013-10-06 23:35:00,
2013-10-06 18:40:00,60.4,29.6,30.06,WNW,297,10.0,31.0,31,0.00,,,0.00,Wunderground v.1.15,2013-10-06 23:40:00,
2013-10-06 18:45:00,59.9,29.9,30.06,NW,307,9.0,31.0,32,0.00,,,0.00,Wunderground v.1.15,2013-10-06 23:45:00,
2013-10-06 18:55:00,58.8,30.5,30.06,WNW,292,8.0,31.0,34,0.00,,,0.00,Wunderground v.1.15,2013-10-06 23:55:00,
2013-10-06 19:00:00,58.4,30.8,30.06,WNW,302,7.0,7.0,35,0.00,,,0.00,Wunderground v.1.15,2013-10-07 00:00:00,
2013-10-06 19:05:00,57.8,31.0,30.06,NW,304,6.0,31.0,36,0.00,,,0.00,Wunderground v.1.15,2013-10-07 00:05:00,
2013-10-06 19:10:00,57.2,31.1,30.07,NW,309,6.0,31.0,37,0.00,,,0.00,Wunderground v.1.15,2013-10-07 00:10:00,
2013-10-06 19:20:00,56.2,31.5,30.07,WNW,303,6.0,6.0,39,0.00,,,0.00,Wunderground v.1.15,2013-10-07 00:20:00,
2013-10-06 19:25:00,55.7,32.3,30.07,NW,309,5.0,31.0,41,0.00,,,0.00,Wunderground v.1.15,2013-10-07 00:25:00,
2013-10-06 19:30:00,55.1,32.4,30.07,NW,308,4.0,4.0,42,0.00,,,0.00,Wunderground v.1.15,2013-10-07 00:30:00,
2013-10-06 19:35:00,54.6,32.5,30.07,NW,306,4.0,31.0,43,0.00,,,0.00,Wunderground v.1.15,2013-10-07 00:35:00,
2013-10-06 19:45:00,52.9,33.2,30.08,WNW,294,4.0,31.0,47,0.00,,,0.00,Wunderground v.1.15,2013-10-07 00:45:00,
2013-10-06 19:50:00,52.5,32.8,30.08,WNW,294,4.0,31.0,47,0.00,,,0.00,Wunderground v.1.15,2013-10-07 00:50:00,
2013-10-06 19:55:00,52.1,33.0,30.08,WNW,294,4.0,31.0,48,0.00,,,0.00,Wunderground v.1.15,2013-10-07 00:55:00,
2013-10-06 20:00:00,51.7,33.1,30.08,WNW,293,3.0,3.0,49,0.00,,,0.00,Wunderground v.1.15,2013-10-07 01:00:00,
2013-10-06 20:05:00,51.4,32.9,30.08,WNW,293,2.0,31.0,49,0.00,,,0.00,Wunderground v.1.15,2013-10-07 01:05:00,
2013-10-06 20:15:00,51.0,34.0,30.08,WNW,294,4.0,31.0,52,0.00,,,0.00,Wunderground v.1.15,2013-10-07 01:15:00,
2013-10-06 20:20:00,51.0,34.0,30.08,WNW,296,5.0,5.0,52,0.00,,,0.00,Wunderground v.1.15,2013-10-07 01:20:00,
2013-10-06 20:25:00,51.0,34.0,30.09,WNW,288,6.0,6.0,52,0.00,,,0.00,Wunderground v.1.15,2013-10-07 01:25:00,
2013-10-06 20:30:00,51.0,34.5,30.09,WNW,294,6.0,31.0,53,0.00,,,0.00,Wunderground v.1.15,2013-10-07 01:30:00,
2013-10-06 20:35:00,51.0,34.5,30.09,WNW,300,5.0,31.0,53,0.00,,,0.00,Wunderground v.1.15,2013-10-07 01:35:00,
2013-10-06 20:45:00,50.3,34.7,30.09,WNW,296,5.0,31.0,55,0.00,,,0.00,Wunderground v.1.15,2013-10-07 01:45:00,
2013-10-06 20:50:00,49.9,34.8,30.09,WNW,296,4.0,31.0,56,0.00,,,0.00,Wunderground v.1.15,2013-10-07 01:50:00,
2013-10-06 20:55:00,49.7,34.6,30.10,WNW,296,4.0,31.0,56,0.00,,,0.00,Wunderground v.1.15,2013-10-07 01:55:00,
2013-10-06 21:00:00,49.6,35.0,30.10,WNW,295,5.0,31.0,57,0.00,,,0.00,Wunderground v.1.15,2013-10-07 02:00:00,
2013-10-06 21:10:00,49.6,35.0,30.10,WNW,299,6.0,31.0,57,0.00,,,0.00,Wunderground v.1.15,2013-10-07 02:10:00,
2013-10-06 21:15:00,49.5,35.3,30.10,WNW,296,6.0,31.0,58,0.00,,,0.00,Wunderground v.1.15,2013-10-07 02:15:00,
2013-10-06 21:20:00,49.5,35.3,30.10,WNW,302,6.0,6.0,58,0.00,,,0.00,Wunderground v.1.15,2013-10-07 02:20:00,
2013-10-06 21:25:00,49.5,35.8,30.10,NW,304,5.0,31.0,59,0.00,,,0.00,Wunderground v.1.15,2013-10-07 02:25:00,
2013-10-06 21:35:00,49.2,35.9,30.11,WNW,293,6.0,31.0,60,0.00,,,0.00,Wunderground v.1.15,2013-10-07 02:35:00,
2013-10-06 21:40:00,49.3,36.0,30.11,WNW,303,6.0,31.0,60,0.00,,,0.00,Wunderground v.1.15,2013-10-07 02:40:00,
2013-10-06 21:45:00,49.6,36.3,30.11,WNW,295,7.0,31.0,60,0.00,,,0.00,Wunderground v.1.15,2013-10-07 02:45:00,
2013-10-06 21:50:00,49.5,36.2,30.11,WNW,296,7.0,7.0,60,0.00,,,0.00,Wunderground v.1.15,2013-10-07 02:50:00,
2013-10-06 22:00:00,48.6,36.6,30.11,WNW,299,6.0,6.0,63,0.00,,,0.00,Wunderground v.1.15,2013-10-07 03:00:00,
2013-10-06 22:05:00,48.5,36.5,30.12,WNW,298,6.0,7.0,63,0.00,,,0.00,Wunderground v.1.15,2013-10-07 03:05:00,
2013-10-06 22:10:00,48.4,36.8,30.12,WNW,302,6.0,31.0,64,0.00,,,0.00,Wunderground v.1.15,2013-10-07 03:10:00,
2013-10-06 22:15:00,48.4,36.8,30.12,WNW,293,6.0,31.0,64,0.00,,,0.00,Wunderground v.1.15,2013-10-07 03:15:00,
2013-10-06 22:20:00,48.3,36.7,30.12,WNW,296,6.0,31.0,64,0.00,,,0.00,Wunderground v.1.15,2013-10-07 03:20:00,
2013-10-06 22:30:00,47.9,36.7,30.12,WNW,301,6.0,6.0,65,0.00,,,0.00,Wunderground v.1.15,2013-10-07 03:30:00,
2013-10-06 22:35:00,48.2,37.0,30.13,WNW,298,6.0,7.0,65,0.00,,,0.00,Wunderground v.1.15,2013-10-07 03:35:00,
2013-10-06 22:40:00,48.3,37.1,30.13,WNW,301,6.0,31.0,65,0.00,,,0.00,Wunderground v.1.15,2013-10-07 03:40:00,
2013-10-06 22:50:00,48.0,37.2,30.13,WNW,297,4.0,31.0,66,0.00,,,0.00,Wunderground v.1.15,2013-10-07 03:50:00,
2013-10-06 22:55:00,47.8,37.0,30.13,WNW,297,4.0,31.0,66,0.00,,,0.00,Wunderground v.1.15,2013-10-07 03:55:00,
2013-10-06 23:00:00,47.7,36.9,30.13,WNW,296,4.0,31.0,66,0.00,,,0.00,Wunderground v.1.15,2013-10-07 04:00:00,
2013-10-06 23:05:00,47.5,37.1,30.13,WNW,296,4.0,31.0,67,0.00,,,0.00,Wunderground v.1.15,2013-10-07 04:05:00,
2013-10-06 23:10:00,47.4,37.0,30.13,WNW,298,5.0,5.0,67,0.00,,,0.00,Wunderground v.1.15,2013-10-07 04:10:00,
2013-10-06 23:15:00,47.4,37.0,30.13,WNW,297,5.0,31.0,67,0.00,,,0.00,Wunderground v.1.15,2013-10-07 04:15:00,
2013-10-06 23:20:00,47.2,36.8,30.13,WNW,297,5.0,31.0,67,0.00,,,0.00,Wunderground v.1.15,2013-10-07 04:20:00,
2013-10-06 23:25:00,47.2,36.8,30.13,WNW,301,5.0,31.0,67,0.00,,,0.00,Wunderground v.1.15,2013-10-07 04:25:00,
2013-10-06 23:30:00,47.2,36.8,30.12,WNW,298,5.0,5.0,67,0.00,,,0.00,Wunderground v.1.15,2013-10-07 04:30:00,
2013-10-06 23:40:00,47.0,37.0,30.12,WNW,288,5.0,31.0,68,0.00,,,0.00,Wunderground v.1.15,2013-10-07 04:40:00,
2013-10-06 23:45:00,46.9,36.9,30.12,WNW,292,5.0,31.0,68,0.00,,,0.00,Wunderground v.1.15,2013-10-07 04:45:00,
2013-10-06 23:50:00,46.9,36.9,30.12,WNW,297,5.0,31.0,68,0.00,,,0.00,Wunderground v.1.15,2013-10-07 04:50:00,
2013-10-06 23:55:00,46.8,36.8,30.12,WNW,298,5.0,31.0,68,0.00,,,0.00,Wunderground v.1.15,2013-10-07 04:55:00,